{"data":{"norad_id":64549,"epoch":"2026-09-21T21:01:10.893792Z","epoch_age_seconds":62542,"freshness":"FRESH","line1":"1 64549U 25135X   26264.87582053  .00004633  00000+0  18933-3 0  9994","line2":"2 64549  97.4864  20.9069 0002673 107.2791 252.8739 15.24868152 69642","mean_motion":15.24868152,"eccentricity":0.0002673,"inclination_deg":97.4864,"raan_deg":20.9069,"arg_perigee_deg":107.2791,"mean_anomaly_deg":252.8739,"bstar":0.00018933,"rev_number":6964,"period_min":94.434394089175,"perigee_km":489.34520766326,"apogee_km":493.01754526732,"semimajor_km":6869.3183764653,"source":"CELESTRAK","updated_at":"2026-09-22T09:00:29.843964Z"}}